Location: Trani
(41.2830°N, 16.4170°E)
Time: 18:12:56
(UTC+02:00)

ISS - Pass Details

Date: 15 May 2021
Orbit: 417 x 422 km, 51.6° (Epoch: 18 June)

Event Time Altitude Azimuth Distance (km) Brightness Sun altitude
Rises 02:03:29 0° 308° (NW) 2,372 0.3 -27.5°
Reaches altitude 10° 02:06:08 10° 329° (NNW) 1,508 -0.5 -27.4°
Maximum altitude 02:08:25 17° 12° (NNE) 1,161 -0.7 -27.2°
Drops below altitude 10° 02:10:42 10° 55° (NE) 1,508 -0.3 -27.0°
Sets 02:13:21 0° 77° (ENE) 2,372 0.5 -26.9°
